{"data":{"norad_id":69571,"epoch":"2026-07-13T05:10:02.915328Z","epoch_age_seconds":6019601,"freshness":"OLD","line1":"1 69571U 26136B   26194.21531152  .00411847  89933-7  60349-3 0  9997","line2":"2 69571  63.4303 350.8798 7256733 171.5015 216.3709  2.38066580   637","mean_motion":2.3806658,"eccentricity":0.7256733,"inclination_deg":63.4303,"raan_deg":350.8798,"arg_perigee_deg":171.5015,"mean_anomaly_deg":216.3709,"bstar":0.00060349,"rev_number":63,"period_min":604.87280491029,"perigee_km":121.22856606579,"apogee_km":34506.624214636,"semimajor_km":23692.063390351,"source":"CELESTRAK","updated_at":"2026-07-16T09:00:36.494081Z"}}